Погода в Целинном

Россия / Республика Тыва     51°19′45″N   94°48′16″E
темп.,
°C
ветер,
м/с
пор.,
м/с
влажн.,
%
обл.,
%
осадки,
мм/ч
давл.,
гПа
погр.,
м
14 апреля, ср
ср1401:00+3сз7949100 0.5 1021692
04:00+1зсз81036100 0.0 1024976
07:000зсз6104682 0.0 1028811
10:00+2сз81043100 0.1 10292057
13:00+4зсз8930100 0.1 10272502
16:00+5сз7931100 0.1 10252294
19:00+4ссз353496 0.1 1024491
22:00+3ююв3440100 0.0 1022109
15 апреля, чт
чт1501:00+3ююз61150100 0.2 1020523
04:00+3сз41150100 0.0 1020494
07:00+3зсз51156100 0.0 1022954
10:00+7сз81342100 0.0 10222228
13:00+8сз6841100 0.1 10221909
16:00+9сз5740100 0.1 10211954
19:00+8с354263 0.1 1022225
22:00+5ююз225073 0.0 102312
16 апреля, пт
пт1601:00+3ююв22565 0.0 102313
04:00+2вюв22615 0.0 102314
07:00+3вюв23615 0.0 102394
10:00+9в23405 0.0 1020695
13:00+13ссв24280 0.0 10161726
16:00+16зсз34245 0.0 10131915
19:00+13юз23300 0.0 101260
22:00+9ю33390 0.0 101323
17 апреля, сб
сб1701:00+7ююв22430 0.0 101214
04:00+5юв22480 0.0 101213
07:00+6юв22480 0.0 101254
10:00+11в22315 0.0 1009551
13:00+17зсз1420100 0.0 10031844
16:00+18сз342099 0.0 10022639
19:00+15сз332982 0.0 100359
22:00+10з344861 0.0 100566
18 апреля, вс
вс1801:00+9з225537 0.0 100619
04:00+7з116199 0.0 100710
07:00+8вюв115583 0.0 100962
10:00+11с1144100 0.0 1008919
13:00+14всв123270 0.0 10061968
16:00+17св252760 0.0 10022234
19:00+12с67466 0.1 1005656
22:00+10юв22542 0.0 100425